Météo par heure à Abapo

Ce jour, 6 Décembre, Dimanche

Heure Température Précipitation Vent Pression Humidité
00:00 +23°C° 0 mm 2 m/s 715 mmHg 62%
01:00 +23°C° 0 mm 1 m/s 714 mmHg 63%
02:00 +23°C° 0 mm 1 m/s 714 mmHg 64%
03:00 +22°C° 0 mm 1 m/s 714 mmHg 65%
04:00 +22°C° 0 mm 1 m/s 714 mmHg 67%
05:00 +21°C° 0 mm 1 m/s 714 mmHg 68%
06:00 +22°C° 0 mm 1 m/s 714 mmHg 65%
07:00 +23°C° 0 mm 1 m/s 715 mmHg 62%
08:00 +24°C° 0 mm 2 m/s 715 mmHg 58%
09:00 +25°C° 0 mm 2 m/s 715 mmHg 52%
10:00 +27°C° 0 mm 2 m/s 715 mmHg 46%
11:00 +28°C° 0 mm 2 m/s 715 mmHg 39%
12:00 +30°C° 0 mm 2 m/s 715 mmHg 36%
13:00 +32°C° 0 mm 2 m/s 714 mmHg 32%
14:00 +35°C° 0 mm 2 m/s 714 mmHg 28%
15:00 +34°C° 0 mm 2 m/s 713 mmHg 29%
16:00 +34°C° 0 mm 2 m/s 713 mmHg 30%
17:00 +32°C° 0 mm 2 m/s 712 mmHg 31%
18:00 +30°C° 0 mm 2 m/s 712 mmHg 37%
19:00 +28°C° 0 mm 2 m/s 712 mmHg 42%
20:00 +26°C° 0 mm 1 m/s 712 mmHg 48%
21:00 +25°C° 0 mm 1 m/s 713 mmHg 51%
22:00 +24°C° 0 mm 1 m/s 713 mmHg 53%
23:00 +24°C° 0 mm 1 m/s 713 mmHg 56%

Demain, 7 Décembre, Lundi

Heure Température Précipitation Vent Pression Humidité
00:00 +23°C° 0 mm 1 m/s 713 mmHg 57%
01:00 +23°C° 0 mm 1 m/s 712 mmHg 58%
02:00 +23°C° 0 mm 1 m/s 712 mmHg 59%
03:00 +22°C° 0 mm 1 m/s 712 mmHg 60%
04:00 +22°C° 0 mm 1 m/s 711 mmHg 62%
05:00 +22°C° 0 mm 1 m/s 711 mmHg 64%
06:00 +24°C° 0 mm 1 m/s 712 mmHg 56%
07:00 +26°C° 0 mm 1 m/s 713 mmHg 49%
08:00 +28°C° 0 mm 1 m/s 713 mmHg 42%
09:00 +30°C° 0 mm 1 m/s 713 mmHg 38%
10:00 +32°C° 0 mm 1 m/s 713 mmHg 33%
11:00 +34°C° 0 mm 1 m/s 714 mmHg 29%
12:00 +35°C° 0 mm 2 m/s 713 mmHg 28%
13:00 +35°C° 0 mm 2 m/s 712 mmHg 28%
14:00 +36°C° 0 mm 3 m/s 711 mmHg 27%
15:00 +35°C° 0 mm 2 m/s 711 mmHg 29%
16:00 +34°C° 0 mm 2 m/s 711 mmHg 30%
17:00 +32°C° 0 mm 2 m/s 710 mmHg 32%
18:00 +30°C° 0 mm 1 m/s 710 mmHg 36%
19:00 +28°C° 0 mm 1 m/s 710 mmHg 41%
20:00 +24°C° 0 mm 0 m/s 710 mmHg 45%
21:00 +26°C° 0 mm 1 m/s 711 mmHg 48%
22:00 +25°C° 0 mm 1 m/s 711 mmHg 51%
23:00 +24°C° 0 mm 1 m/s 712 mmHg 54%

Après-demain, 8 Décembre, Mardi

Heure Température Précipitation Vent Pression Humidité
00:00 +23°C° 0 mm 1 m/s 711 mmHg 56%
01:00 +23°C° 0 mm 1 m/s 710 mmHg 57%
02:00 +23°C° 0 mm 1 m/s 710 mmHg 59%
03:00 +23°C° 0 mm 1 m/s 710 mmHg 58%
04:00 +23°C° 0 mm 1 m/s 710 mmHg 57%
05:00 +23°C° 0 mm 1 m/s 710 mmHg 57%
06:00 +26°C° 0 mm 1 m/s 711 mmHg 48%
07:00 +30°C° 0 mm 1 m/s 711 mmHg 40%
08:00 +31°C° 0 mm 0 m/s 712 mmHg 32%
09:00 +34°C° 0 mm 1 m/s 712 mmHg 29%
10:00 +37°C° 0 mm 2 m/s 711 mmHg 27%
11:00 +38°C° 0 mm 3 m/s 711 mmHg 24%
12:00 +39°C° 0 mm 3 m/s 710 mmHg 25%
13:00 +40°C° 0 mm 4 m/s 709 mmHg 26%
14:00 +40°C° 0 mm 4 m/s 709 mmHg 26%
15:00 +40°C° 0 mm 4 m/s 708 mmHg 28%
16:00 +38°C° 0 mm 4 m/s 708 mmHg 29%
17:00 +38°C° 0 mm 4 m/s 708 mmHg 31%
18:00 +35°C° 0 mm 3 m/s 708 mmHg 37%
19:00 +32°C° 0 mm 2 m/s 709 mmHg 43%
20:00 +30°C° 0 mm 1 m/s 709 mmHg 48%
21:00 +28°C° 0 mm 1 m/s 709 mmHg 52%
22:00 +27°C° 0 mm 1 m/s 709 mmHg 56%
23:00 +24°C° 0 mm 0 m/s 710 mmHg 60%

9 Décembre, Mercredi

Heure Température Précipitation Vent Pression Humidité
00:00 +24°C° 0 mm 0 m/s 709 mmHg 62%
01:00 +25°C° 0 mm 1 m/s 709 mmHg 64%
02:00 +24°C° 0 mm 1 m/s 708 mmHg 66%
03:00 +24°C° 0.1 mm 1 m/s 709 mmHg 68%
04:00 +24°C° 0.1 mm 1 m/s 709 mmHg 70%
05:00 +24°C° 0.1 mm 1 m/s 709 mmHg 71%
06:00 +25°C° 0.1 mm 1 m/s 710 mmHg 67%
07:00 +26°C° 0.1 mm 1 m/s 711 mmHg 63%
08:00 +28°C° 0.1 mm 1 m/s 712 mmHg 59%
09:00 +31°C° 0.1 mm 1 m/s 712 mmHg 49%
10:00 +35°C° 0.1 mm 1 m/s 713 mmHg 39%
11:00 +39°C° 0.1 mm 1 m/s 713 mmHg 29%
12:00 +39°C° 0.1 mm 1 m/s 712 mmHg 30%
13:00 +38°C° 0.1 mm 2 m/s 712 mmHg 30%
14:00 +38°C° 0.1 mm 3 m/s 711 mmHg 31%
15:00 +35°C° 0.1 mm 2 m/s 710 mmHg 41%
16:00 +31°C° 0.1 mm 2 m/s 710 mmHg 52%
17:00 +29°C° 0.1 mm 2 m/s 709 mmHg 62%
18:00 +27°C° 0.3 mm 2 m/s 710 mmHg 68%
19:00 +26°C° 0.3 mm 2 m/s 710 mmHg 74%
20:00 +25°C° 0.3 mm 2 m/s 711 mmHg 80%
21:00 +25°C° 0.3 mm 2 m/s 711 mmHg 81%
22:00 +25°C° 0.3 mm 2 m/s 711 mmHg 82%
23:00 +24°C° 0.3 mm 2 m/s 711 mmHg 83%

10 Décembre, Jeudi

Heure Température Précipitation Vent Pression Humidité
00:00 +24°C° 0.6 mm 3 m/s 711 mmHg 86%
01:00 +22°C° 0.6 mm 3 m/s 710 mmHg 88%
02:00 +22°C° 0.6 mm 4 m/s 710 mmHg 91%
03:00 +22°C° 1.5 mm 3 m/s 710 mmHg 91%
04:00 +21°C° 1.5 mm 3 m/s 710 mmHg 92%
05:00 +21°C° 1.5 mm 2 m/s 710 mmHg 93%
06:00 +23°C° 0 mm 2 m/s 710 mmHg 88%
07:00 +24°C° 0 mm 2 m/s 710 mmHg 82%
08:00 +26°C° 0 mm 1 m/s 710 mmHg 77%
09:00 +29°C° 0 mm 2 m/s 710 mmHg 62%
10:00 +33°C° 0 mm 3 m/s 710 mmHg 47%
11:00 +37°C° 0 mm 3 m/s 710 mmHg 33%
12:00 +37°C° 0 mm 4 m/s 709 mmHg 31%
13:00 +39°C° 0 mm 5 m/s 708 mmHg 29%
14:00 +40°C° 0 mm 5 m/s 707 mmHg 28%
15:00 +39°C° 0 mm 5 m/s 707 mmHg 29%
16:00 +37°C° 0 mm 5 m/s 706 mmHg 31%
17:00 +37°C° 0 mm 5 m/s 705 mmHg 32%
18:00 +34°C° 0 mm 4 m/s 706 mmHg 41%
19:00 +32°C° 0 mm 4 m/s 706 mmHg 51%
20:00 +29°C° 0 mm 3 m/s 706 mmHg 60%
21:00 +28°C° 0 mm 2 m/s 706 mmHg 64%
22:00 +26°C° 0 mm 2 m/s 706 mmHg 68%
23:00 +25°C° 0 mm 1 m/s 706 mmHg 72%

11 Décembre, Vendredi

Heure Température Précipitation Vent Pression Humidité
00:00 +24°C° 0 mm 1 m/s 706 mmHg 75%
01:00 +24°C° 0 mm 1 m/s 705 mmHg 78%
02:00 +21°C° 0 mm 0 m/s 705 mmHg 81%
03:00 +20°C° 0 mm 0 m/s 704 mmHg 83%
04:00 +20°C° 0 mm 0 m/s 704 mmHg 85%
05:00 +20°C° 0 mm 0 m/s 704 mmHg 87%
06:00 +24°C° 0 mm 1 m/s 705 mmHg 75%
07:00 +27°C° 0 mm 1 m/s 705 mmHg 63%
08:00 +30°C° 0 mm 1 m/s 706 mmHg 51%
09:00 +34°C° 0 mm 2 m/s 706 mmHg 44%
10:00 +37°C° 0 mm 2 m/s 706 mmHg 37%
11:00 +40°C° 0 mm 3 m/s 706 mmHg 30%
12:00 +40°C° 0 mm 3 m/s 705 mmHg 29%
13:00 +42°C° 0 mm 4 m/s 704 mmHg 28%
14:00 +43°C° 0 mm 5 m/s 703 mmHg 27%
15:00 +41°C° 0 mm 5 m/s 703 mmHg 31%
16:00 +40°C° 0 mm 5 m/s 702 mmHg 35%
17:00 +37°C° 0 mm 5 m/s 702 mmHg 39%
18:00 +35°C° 0 mm 4 m/s 703 mmHg 47%
19:00 +31°C° 0 mm 3 m/s 703 mmHg 54%
20:00 +29°C° 0 mm 2 m/s 704 mmHg 62%
21:00 +28°C° 0 mm 2 m/s 704 mmHg 66%
22:00 +27°C° 0 mm 1 m/s 704 mmHg 70%
23:00 +26°C° 0 mm 1 m/s 704 mmHg 74%
Voir plus

Nous avons besoin de votre consentement

Meteoprog et ses fournisseurs de services peuvent stocker et accéder à des données personnelles telles que des cookies, des identifiants d'appareils ou d'autres technologies similaires sur votre appareil et traiter ces données pour personnaliser le contenu et les publicités, ainsi que pour fournir des fonctionnalités de médias sociaux et analyser le trafic.

  • Stocker et/ou accéder à des informations sur votre appareil

    Des cookies, des identifiants d'appareils ou d'autres informations peuvent être stockés ou accessibles sur votre appareil aux fins indiquées ci-dessus.

  • Annonces et contenus personnalisés, mesure des annonces et des contenus, connaissance de l'audience et développement de produits

    Les annonces et le contenu peuvent être personnalisés en fonction d'un profil. D'autres données peuvent être ajoutées pour mieux personnaliser les annonces et le contenu. Les performances des publicités et du contenu peuvent être mesurées. Il est possible d'obtenir des informations sur le public qui a vu les publicités et le contenu. Ces données peuvent être utilisées pour développer ou améliorer l'expérience de l'utilisateur, les systèmes et les logiciels.

En cliquant sur "J'accepte", vous autorisez l'utilisation de cookies, des identifiants d'appareils, des balises web ou d'autres technologies similaires. Vos paramètres peuvent être modifiés dans le navigateur de votre appareil.

Dans certains cas, des intérêts légitimes peuvent être invoqués plutôt qu'un consentement. Vous pouvez en savoir plus à ce sujet dans notre Politique de confidentialité et de cookies.